Regional Weather Roundup
Issued by NWS Little Rock, AR

Home | Current Version | Previous Version | Text Only | Print | Product List | Glossary On
Versions: 1 2 3 4 5 6 7 8 9 10 11 12 13 14 15 16 17 18 19 20 21 22 23 24 25 26 27 28 29 30 31 32 33 34 35 36 37 38 39 40 41 42 43 44 45 46 47 48 49 50
000
ASUS44 KLZK 261905
RWRLZK

WEATHER ROUNDUP FOR ARKANSAS
NATIONAL WEATHER SERVICE LITTLE ROCK AR
200 PM CDT WED JUL 26 2017

NOTE: "FAIR" INDICATES FEW OR NO CLOUDS BELOW 12,000 FEET WITH NO
SIGNIFICANT WEATHER AND/OR OBSTRUCTIONS TO VISIBILITY.

ARZ001-003-010-029-262000-
NORTHWEST ARKANSAS

CITY           SKY/WX    TMP DP  RH WIND       PRES   REMARKS
FAYETTEVILLE   CLOUDY    91  75  59 W10       30.07F HX 101
FORT SMITH     PTSUNNY   96  72  45 SW12      30.03F HX 104
HARRISON       CLOUDY    90  72  55 S5        30.09F HX  97
BENTONVILLE    CLOUDY    93  70  46 SW12      30.09S HX  99
ROGERS         CLOUDY    93  72  50 S9        30.08F HX 101
SILOAM SPGS    CLOUDY    93  72  49 SW12      30.06F HX 100
HIGHFILL       CLOUDY    94  70  45 SW14      30.07F HX 100
SPRINGDALE     MOSUNNY   93  70  46 SW17G29   30.09F HX  99
$$

ARZ004-005-016-262000-
NORTH CENTRAL ARKANSAS

CITY           SKY/WX    TMP DP  RH WIND       PRES   REMARKS
BATESVILLE     SUNNY     97  66  36 SW8       30.05F HX 100
FLIPPIN        CLOUDY    93  66  40 SW5       30.04F HX  96
MTN HOME       CLOUDY    92  71  50 W7        30.07F HX  98
$$

ARZ040-041-262000-
WEST CENTRAL ARKANSAS

CITY           SKY/WX    TMP DP  RH WIND       PRES   REMARKS
MENA           MOSUNNY   95  72  46 SW6       30.10F HX 103
MOUNT IDA      SUNNY     93  67  42 VRB6      30.08F HX  96
$$

ARZ009-017-025-026-028-262000-
NORTHEAST ARKANSAS

CITY           SKY/WX    TMP DP  RH WIND       PRES   REMARKS
CORNING        LGT RAIN  93  77  59 SW12      30.05F HX 107
JONESBORO      MOSUNNY   95  77  55 SW13      30.05F HX 109
WALNUT RIDGE   SUNNY     97  72  44 CALM      30.04F HX 105
BLYTHEVILLE    MOSUNNY   92  75  57 SW12      30.06F HX 103
$$

ARZ022-023-033-042-044-262000-
CENTRAL ARKANSAS

CITY           SKY/WX    TMP DP  RH WIND       PRES   REMARKS
LITTLE ROCK    MOSUNNY   94  73  50 SW9       30.07F HX 103
N LITTLE ROCK    N/A     93  71  49 W5        30.05F HX  99
JACKSONVILLE   MOSUNNY   95  74  51 S3        30.06F HX 105
CONWAY           N/A     95  72  46 CALM      30.04F HX 103
SEARCY         SUNNY     93  75  55 SW6       30.08F HX 104
HOT SPRINGS    MOSUNNY   95  73  48 W8        30.08F HX 104
RUSSELLVILLE   MOSUNNY   93  70  46 SW7       30.05F HX  99
CLINTON        FAIR      93  70  46 CALM      30.06F HX  99
$$

ARZ036-262000-
EAST ARKANSAS

CITY           SKY/WX    TMP DP  RH WIND       PRES   REMARKS
WEST MEMPHIS   SUNNY     93  76  57 VRB5      30.06F HX 105
$$

ARZ050-053-066-070-073-262000-
SOUTHWEST ARKANSAS

CITY           SKY/WX    TMP DP  RH WIND       PRES   REMARKS
ARKADELPHIA    MOCLDY    91  77  63 NW5       30.08F HX 104
CAMDEN         MOSUNNY   95  70  43 SW5       30.08F HX 101
TEXARKANA      MOSUNNY   91  73  55 VRB5      30.08F HX  99
EL DORADO      MOSUNNY   93  72  50 SW9       30.09F HX 101
DE QUEEN       MOSUNNY   92  75  57 VRB5      30.06F HX 103
$$

ARZ056-057-069-262000-
SOUTHEAST ARKANSAS

CITY           SKY/WX    TMP DP  RH WIND       PRES   REMARKS
PINE BLUFF     SUNNY     92  73  53 SW8       30.08F HX 100
STUTTGART      PTSUNNY   93  68  43 MISG      30.09F HX  97
MONTICELLO     SUNNY     93  72  50 W8        30.08F HX 101

$$





USA.gov is the U.S. government's official web portal to all federal, state and local government web resources and services.